[[{"header":{"parameterUnit":"m.s-1","parameterCategory":1,"la1":30.2991,"la2":30.254,"lo1":-89.0895,"lo2":-89.0444,"dy":0.0017,"dx":0.0017,"nx":28,"ny":28,"refTime":"2024-02-10T09:00:00:Z","depth":0,"parameterNumber":2,"parameterNumberName":"U-component_of_WINDS"},"data":[0,0,0,0,0,0,0,0,0,0,0,0,0,0,0,0,0,0,0,0,0,0,0,0,0,0,0,0,0,0,0,0,0,0,0,0,0,0,0,0,0,0,0,0,0,0,0,0,0,0,0,0,0,0,0,0,0,0,-2.4745,-2.4746,0,-2.4813,-2.4813,-2.4814,-2.4804,-2.4803,-2.4802,-2.4801,-2.4872,-2.4874,-2.4877,0,0,0,0,0,0,0,0,0,0,0,0,0,-2.4609,-2.4611,-2.4745,-2.4746,-2.4747,-2.4813,-2.4814,-2.4814,-2.4804,-2.4803,-2.4802,-2.48,-2.4871,-2.4874,-2.4878,0,0,0,0,0,0,0,0,0,0,0,0,0,-2.4671,-2.4612,-2.4745,-2.4749,-2.4751,-2.4812,-2.4814,-2.4815,-2.4805,-2.4803,-2.4801,-2.48,-2.4869,-2.4874,-2.4878,-2.494,0,0,-2.4892,-2.4894,0,0,0,0,0,0,0,0,-2.4668,-2.4676,-2.4748,-2.4749,-2.4751,-2.4798,-2.4791,-2.4857,-2.4805,-2.4784,-2.4801,-2.4799,-2.4849,-2.4855,-2.4871,-2.4943,-2.4946,-2.4892,-2.4895,-2.4897,-2.4898,0,0,0,0,0,0,0,-2.4663,-2.4673,-2.4772,-2.4749,-2.4751,-2.4749,-2.4756,-2.4804,-2.4825,-2.4786,-2.4785,-2.4793,-2.4849,-2.4867,-2.4873,-2.4947,-2.4892,-2.4896,-2.4899,-2.49,-2.5073,-2.5075,0,0,0,0,0,0,-2.4658,-2.467,-2.477,-2.4774,-2.4704,-2.4753,-2.4761,-2.4785,-2.4825,-2.4829,-2.4795,-2.4793,-2.486,-2.4868,-2.4875,-2.495,-2.4897,-2.4901,-2.4903,-2.5072,-2.5074,-2.5076,0,0,0,0,0,0,-2.4655,-2.4667,-2.4767,-2.4722,-2.4734,-2.4757,-2.4784,-2.4787,-2.4805,-2.4831,-2.4835,-2.4809,-2.4859,-2.4869,-2.4924,-2.4952,-2.4903,-2.4907,-2.5069,-2.5072,-2.5075,-2.5099,0,0,0,0,0,0,-2.4651,-2.4666,-2.4689,-2.4722,-2.4737,-2.4814,-2.4786,-2.4789,-2.4812,-2.481,-2.4846,-2.485,-2.4859,-2.4917,-2.4928,-2.4957,-2.491,-2.5067,-2.5071,-2.5074,-2.5096,-2.5103,-2.5108,0,0,0,0,0,-2.4646,-2.4693,-2.469,-2.4702,-2.4766,-2.4815,-2.4824,-2.4832,-2.4815,-2.4838,-2.4856,-2.4849,-2.4948,-2.4923,-2.4935,-2.4966,-2.5065,-2.507,-2.5074,-2.5093,-2.5101,-2.5108,0,0,0,0,0,0,-2.4663,-2.4698,-2.4694,-2.4754,-2.4782,-2.4814,-2.4843,-2.484,-2.4874,-2.4871,-2.488,-2.4889,-2.4944,-2.4961,-2.4933,-2.5028,-2.5004,-2.5011,-2.5014,-2.5022,-2.5028,-2.5022,-2.4914,0,0,0,0,0,-2.4673,-2.471,-2.4739,-2.4788,-2.4803,-2.4821,-2.4843,-2.4847,-2.4876,-2.4888,-2.4909,-2.4938,-2.4976,-2.5,-2.5036,-2.5099,-2.5106,-2.5126,-2.5132,-2.5137,-2.5143,-2.5177,-2.5186,-2.509,-2.509,-2.509,0,0,-2.4696,-2.4719,-2.4742,-2.4792,-2.4814,-2.4852,-2.4831,-2.4872,-2.49,-2.4894,-2.4947,-2.4964,-2.4997,-2.5056,-2.5083,-2.5072,-2.5171,-2.5143,-2.5147,-2.5149,-2.5182,-2.5191,-2.5199,-2.5093,-2.5093,-2.5092,0,0,-2.4755,-2.4777,-2.482,-2.4843,-2.4876,-2.4888,-2.4899,-2.4932,-2.4942,-2.4995,-2.4992,-2.5026,-2.5091,-2.5115,-2.5135,-2.5205,-2.52,-2.5217,-2.5248,-2.5281,-2.5288,-2.5295,-2.5319,-2.5328,-2.5222,-2.5222,-2.5222,0,-2.4778,-2.4835,-2.4843,-2.4885,-2.4907,-2.4904,-2.4948,-2.497,-2.5014,-2.5029,-2.5016,-2.5097,-2.512,-2.5183,-2.52,-2.5218,-2.523,-2.5211,-2.5287,-2.5293,-2.53,-2.5323,-2.5332,-2.5224,-2.5224,-2.5224,-2.5224,0,-2.4861,-2.4901,-2.4932,-2.4973,-2.5,-2.5043,-2.5058,-2.5084,-2.5086,-2.51,-2.5154,-2.5181,-2.5222,-2.5238,-2.5241,-2.5303,-2.5295,-2.5284,-2.526,-2.531,-2.5332,-2.5341,-2.5226,-2.5226,-2.5225,-2.5225,0,0,-2.4931,-2.4978,-2.4989,-2.5008,-2.5045,-2.5076,-2.5119,-2.5159,-2.5181,-2.5212,-2.5248,-2.5303,-2.5294,-2.5317,-2.5323,-2.5352,-2.5405,-2.5338,-2.5339,-2.5348,-2.5474,-2.548,-2.549,-2.5402,-2.5404,-2.5406,-2.547,0,-2.4993,-2.5068,-2.5077,-2.5144,-2.5181,-2.5179,-2.5216,-2.5243,-2.5258,-2.5291,-2.5308,-2.5346,-2.5331,-2.5345,-2.5374,-2.5392,-2.543,-2.5388,-2.5436,-2.5437,-2.5425,-2.5502,-2.5508,-2.5568,-2.5479,-2.5481,-2.5482,0,-2.5075,-2.5108,-2.5178,-2.521,-2.5226,-2.5259,-2.5296,-2.5329,-2.536,-2.5368,-2.5395,-2.5397,-2.5442,-2.5418,-2.548,-2.5451,-2.5472,-2.5484,-2.5486,-2.549,-2.5461,-2.5506,-2.5588,-2.5596,-2.5495,-2.5494,-2.5493,0,-2.5118,-2.5179,-2.5229,-2.5245,-2.5285,-2.5308,-2.5326,-2.5356,-2.5379,-2.5412,-2.5428,-2.5466,-2.5487,-2.5517,-2.553,-2.5511,-2.5591,-2.5568,-2.5599,-2.5599,-2.5614,-2.5613,-2.5699,-2.5631,-2.563,-2.563,-2.563,0,-2.5185,-2.5227,-2.5248,-2.5279,-2.5327,-2.5338,-2.5386,-2.5402,-2.5429,-2.5463,-2.5465,-2.5497,-2.5513,-2.5548,-2.5558,-2.5608,-2.5618,-2.5625,-2.5627,-2.5624,-2.5623,-2.5637,-2.5632,-2.5633,-2.5632,-2.5632,-2.5631,0,-2.5239,-2.5255,-2.5309,-2.5342,-2.5352,-2.5385,-2.5414,-2.5444,-2.5458,-2.5502,-2.5512,-2.5535,-2.5576,-2.5593,-2.5643,-2.5651,-2.5707,-2.5707,-2.5696,-2.5696,-2.5726,-2.5722,-2.5823,-2.5836,-2.576,-2.5761,-2.5761,0,-2.528,-2.5313,-2.5349,-2.5372,-2.539,-2.5427,-2.5451,-2.5464,-2.5489,-2.5527,-2.5552,-2.5593,-2.5626,-2.5692,-2.5714,-2.5753,-2.5752,-2.5785,-2.5758,-2.5754,-2.5751,-2.5748,-2.5751,-2.5789,-2.579,-2.579,-2.5791,0,-2.5351,-2.5357,-2.5391,-2.5428,-2.5456,-2.5486,-2.5516,-2.5535,-2.5552,-2.558,-2.5622,-2.5648,-2.5699,-2.574,-2.578,-2.5799,-2.5798,-2.58,-2.5809,-2.5805,-2.5797,-2.58,-2.5708,-2.5797,-2.5796,-2.5796,-2.5795,-2.5795,-2.5399,-2.5427,-2.5457,-2.5495,-2.5519,-2.5546,-2.5576,-2.5594,-2.5629,-2.5671,-2.5677,-2.5722,-2.5753,-2.5807,-2.5827,-2.5863,-2.5854,-2.5868,-2.5871,-2.5873,-2.5875,-2.5793,-2.587,-2.587,-2.587,-2.587,-2.587,0,-2.5468,-2.5487,-2.5522,-2.5563,-2.5593,-2.559,-2.5622,-2.5648,-2.5686,-2.5716,-2.5748,-2.5796,-2.5836,-2.5861,-2.5901,-2.5924,-2.5925,-2.5934,-2.5932,-2.5936,-2.5881,-2.5868,-2.5933,-2.5933,-2.5933,-2.5933,-2.5933,-2.5933,-2.5507,-2.5555,-2.5565,-2.5626,-2.5645,-2.5688,-2.5707,-2.5732,-2.5756,-2.5809,-2.5841,-2.5858,-2.5885,-2.5927,-2.5964,-2.597,-2.5984,-2.5994,-2.5999,-2.5947,-2.594,-2.5934,-2.5922,-2.5997,-2.5997,-2.6052,-2.6052,-2.6053]},{"header":{"parameterUnit":"m.s-1","parameterCategory":1,"la1":30.2991,"la2":30.254,"lo1":-89.0895,"lo2":-89.0444,"dy":0.0017,"dx":0.0017,"nx":28,"ny":28,"refTime":"2024-02-10T09:00:00:Z","depth":0,"parameterNumber":3,"parameterNumberName":"V-component_of_WINDS"},"data":[0,0,0,0,0,0,0,0,0,0,0,0,0,0,0,0,0,0,0,0,0,0,0,0,0,0,0,0,0,0,0,0,0,0,0,0,0,0,0,0,0,0,0,0,0,0,0,0,0,0,0,0,0,0,0,0,0,0,1.9239,1.9239,0,1.9292,1.9292,1.9293,1.9316,1.9316,1.9316,1.9316,1.9369,1.937,1.9372,0,0,0,0,0,0,0,0,0,0,0,0,0,1.9156,1.9158,1.9239,1.9239,1.924,1.9292,1.9292,1.9293,1.9316,1.9316,1.9316,1.9316,1.9368,1.937,1.9372,0,0,0,0,0,0,0,0,0,0,0,0,0,1.9199,1.9158,1.9239,1.9258,1.926,1.9292,1.9292,1.9293,1.9316,1.9316,1.9316,1.9316,1.9368,1.937,1.9372,1.9387,0,0,1.9379,1.938,0,0,0,0,0,0,0,0,1.9196,1.9202,1.9254,1.9257,1.9259,1.9297,1.9283,1.9325,1.9316,1.9295,1.9316,1.9316,1.9345,1.9349,1.9359,1.939,1.9392,1.9379,1.938,1.9381,1.9382,0,0,0,0,0,0,0,1.9193,1.92,1.926,1.9255,1.9258,1.9264,1.9269,1.9291,1.932,1.9297,1.9299,1.9305,1.9346,1.9357,1.9361,1.9393,1.9379,1.9381,1.9382,1.9383,1.9439,1.9439,0,0,0,0,0,0,1.9188,1.9197,1.9258,1.9261,1.9227,1.9265,1.9272,1.9285,1.932,1.9325,1.9305,1.9306,1.9353,1.9358,1.9362,1.9383,1.9381,1.9383,1.9384,1.9439,1.9439,1.9439,0,0,0,0,0,0,1.9186,1.9193,1.9256,1.923,1.9238,1.9267,1.9282,1.9286,1.9297,1.9326,1.9331,1.9311,1.9353,1.9359,1.9381,1.9385,1.9384,1.9386,1.9439,1.9439,1.9439,1.9424,0,0,0,0,0,0,1.9183,1.9192,1.9199,1.923,1.924,1.9274,1.9282,1.9287,1.9301,1.9303,1.9332,1.9337,1.9354,1.9378,1.9383,1.9388,1.9388,1.9438,1.9439,1.9439,1.9424,1.9424,1.9423,0,0,0,0,0,1.918,1.9192,1.9199,1.9206,1.9248,1.9274,1.928,1.9299,1.9301,1.9308,1.9326,1.9336,1.9384,1.938,1.9386,1.9392,1.9438,1.9439,1.9439,1.9425,1.9424,1.9423,0,0,0,0,0,0,1.916,1.9196,1.9204,1.9227,1.9247,1.9278,1.9287,1.9298,1.9318,1.9319,1.9341,1.9348,1.9368,1.9382,1.9377,1.9409,1.9412,1.9414,1.9399,1.9398,1.9398,1.9394,1.939,0,0,0,0,0,1.9158,1.9177,1.9207,1.9224,1.9234,1.9259,1.9271,1.9284,1.9306,1.9315,1.9335,1.9355,1.9375,1.9387,1.9407,1.9426,1.9433,1.9433,1.9433,1.9432,1.9434,1.9445,1.9445,1.9441,1.9441,1.9441,0,0,1.9154,1.9176,1.9187,1.922,1.9238,1.9256,1.9266,1.9285,1.9299,1.9317,1.934,1.9355,1.9379,1.94,1.941,1.9412,1.9436,1.9433,1.9432,1.9434,1.9445,1.9446,1.9446,1.9441,1.9441,1.9441,0,0,1.9157,1.9176,1.9192,1.9209,1.9236,1.9252,1.9256,1.9286,1.9297,1.9319,1.9334,1.935,1.9383,1.94,1.9413,1.9422,1.9432,1.9428,1.9425,1.9436,1.9436,1.9437,1.944,1.9441,1.9429,1.9429,1.9429,0,1.9149,1.9178,1.9198,1.9217,1.9231,1.9249,1.9265,1.9281,1.9312,1.9322,1.9324,1.9366,1.9384,1.9409,1.9411,1.9421,1.9426,1.9424,1.9435,1.9435,1.9436,1.9439,1.944,1.9428,1.9428,1.9428,1.9428,0,1.9166,1.9186,1.9195,1.9226,1.9241,1.9258,1.9281,1.9294,1.9306,1.9322,1.9344,1.9366,1.939,1.9397,1.9409,1.9424,1.9424,1.943,1.9434,1.9435,1.9439,1.944,1.9427,1.9427,1.9427,1.9428,0,0,1.9158,1.92,1.9203,1.9217,1.9248,1.9263,1.9281,1.9305,1.9316,1.9336,1.9352,1.9379,1.9385,1.94,1.9413,1.9422,1.9428,1.9427,1.9428,1.9427,1.9446,1.9442,1.9443,1.9435,1.9435,1.9435,1.9444,0,1.9165,1.9198,1.9217,1.9242,1.926,1.9278,1.9293,1.9314,1.9329,1.9346,1.9363,1.9382,1.9388,1.9397,1.9407,1.9425,1.9432,1.9425,1.9449,1.9449,1.9442,1.9445,1.944,1.9447,1.9446,1.9446,1.9446,0,1.9177,1.9199,1.9226,1.9255,1.9263,1.9276,1.93,1.9317,1.934,1.935,1.9367,1.938,1.9399,1.9401,1.9427,1.9421,1.9432,1.9442,1.9443,1.9446,1.9448,1.9448,1.945,1.9451,1.9448,1.9448,1.9448,0,1.9169,1.9204,1.9225,1.9236,1.927,1.9279,1.9294,1.9317,1.933,1.9351,1.936,1.9382,1.9394,1.9411,1.9429,1.9429,1.9453,1.9457,1.9462,1.9462,1.9467,1.9466,1.9471,1.9473,1.9473,1.9473,1.9473,0,1.9175,1.9191,1.9221,1.9234,1.9252,1.9274,1.9291,1.9307,1.9327,1.9343,1.9359,1.9373,1.9397,1.9414,1.9429,1.9448,1.9453,1.9462,1.9466,1.9461,1.946,1.9468,1.9468,1.9474,1.9474,1.9474,1.9474,0,1.9168,1.919,1.9213,1.9244,1.9252,1.9264,1.9289,1.9302,1.9318,1.9338,1.9344,1.9369,1.939,1.941,1.9438,1.9448,1.9467,1.9472,1.946,1.9462,1.9466,1.9465,1.9476,1.9479,1.9479,1.9479,1.9479,0,1.9171,1.9184,1.9215,1.9227,1.9242,1.9261,1.9275,1.9296,1.931,1.9337,1.9346,1.9369,1.9388,1.942,1.9441,1.9462,1.9467,1.947,1.9471,1.9465,1.9468,1.9467,1.9468,1.9469,1.9469,1.9469,1.9469,0,1.9173,1.9183,1.9203,1.9226,1.9243,1.9262,1.9282,1.929,1.9316,1.933,1.9352,1.9367,1.9396,1.9417,1.9441,1.9455,1.9466,1.9469,1.9471,1.9466,1.9459,1.9463,1.9458,1.9468,1.9468,1.9468,1.9468,1.9469,1.9172,1.9184,1.9208,1.9229,1.9247,1.9265,1.9278,1.9296,1.9315,1.9341,1.9352,1.9374,1.9396,1.943,1.9444,1.9461,1.9463,1.9467,1.9468,1.9468,1.9467,1.9456,1.9465,1.9465,1.9465,1.9465,1.9465,0,1.9175,1.9191,1.9211,1.9238,1.9255,1.9264,1.9287,1.93,1.9319,1.934,1.9358,1.9383,1.9404,1.9426,1.9449,1.9458,1.9464,1.9463,1.9463,1.9466,1.9464,1.9459,1.9458,1.9458,1.9458,1.9458,1.9458,1.9458,1.9179,1.92,1.9212,1.9242,1.9258,1.9281,1.9293,1.9309,1.9326,1.9353,1.9371,1.9385,1.9406,1.943,1.945,1.9456,1.9463,1.9461,1.9468,1.9466,1.9466,1.9467,1.9463,1.9463,1.9463,1.947,1.947,1.947]}]]